OEFEL LSZG-LFTZ

Flight info

Callsign OEFEL
Flight time 1h 50m
Altitude 13000
Route FRIBU DCT ESOKO DCT VEVAR
Aircraft DA42/L-SDFGRY/C

Departure

Time 2026-04-11 12:02
Airport Grenchen Airfield (LSZG)

Arrival

Time 2026-04-11 13:53
Airport La Môle Airport (LFTZ)
Time Latitude Longitude Altitude Speed Heading
2026-04-11 11:50 47.18143 7.41178 1411 ft 0 kts 64°
2026-04-11 11:55 47.18144 7.41181 1411 ft 2 kts 63°
2026-04-11 11:55 47.18170 7.41262 1414 ft 11 kts 66°
2026-04-11 11:55 47.18176 7.41357 1410 ft 10 kts 69°
2026-04-11 11:55 47.18205 7.41452 1410 ft 11 kts 63°
2026-04-11 11:56 47.18239 7.41557 1411 ft 11 kts 64°
2026-04-11 11:56 47.18273 7.41666 1411 ft 13 kts 73°
2026-04-11 11:56 47.18254 7.41810 1405 ft 15 kts 107°
2026-04-11 11:56 47.18237 7.41956 1405 ft 14 kts 68°
2026-04-11 11:57 47.18276 7.42083 1405 ft 14 kts 67°
2026-04-11 11:57 47.18317 7.42211 1405 ft 15 kts 66°
2026-04-11 11:57 47.18338 7.42299 1403 ft 1 kts 243°
2026-04-11 12:01 47.18245 7.42001 1410 ft 61 kts 245°
2026-04-11 12:01 47.18029 7.41287 1520 ft 83 kts 243°
2026-04-11 12:01 47.17755 7.40395 1624 ft 105 kts 245°
2026-04-11 12:01 47.17427 7.39288 1664 ft 128 kts 244°
2026-04-11 12:02 47.17063 7.38035 1809 ft 133 kts 245°
2026-04-11 12:02 47.16424 7.37142 2075 ft 131 kts 200°
2026-04-11 12:02 47.15537 7.36787 2304 ft 133 kts 194°
2026-04-11 12:02 47.14633 7.36470 2563 ft 133 kts 195°
2026-04-11 12:03 47.13715 7.36207 2649 ft 140 kts 194°
2026-04-11 12:03 47.12758 7.35984 2941 ft 132 kts 193°
2026-04-11 12:03 47.11876 7.35774 3237 ft 131 kts 194°
2026-04-11 12:03 47.10985 7.35543 3578 ft 128 kts 197°
2026-04-11 12:04 47.10107 7.35250 3798 ft 134 kts 198°
2026-04-11 12:04 47.09160 7.35123 4036 ft 136 kts 184°
2026-04-11 12:04 47.08241 7.35157 4413 ft 128 kts 192°
2026-04-11 12:04 47.07364 7.35028 4725 ft 125 kts 192°
2026-04-11 12:05 47.06496 7.34894 4950 ft 133 kts 195°
2026-04-11 12:05 47.05570 7.34503 4962 ft 145 kts 206°
2026-04-11 12:05 47.04590 7.34022 5125 ft 144 kts 204°
2026-04-11 12:06 47.18143 7.41178 1411 ft 0 kts 64°
2026-04-11 12:13 47.18156 7.41220 1413 ft 8 kts 64°
2026-04-11 12:13 47.18162 7.41313 1412 ft 11 kts 70°
2026-04-11 12:13 47.18201 7.41433 1412 ft 15 kts 65°
2026-04-11 12:13 47.18245 7.41580 1413 ft 15 kts 64°
2026-04-11 12:14 47.18270 7.41733 1407 ft 17 kts 111°
2026-04-11 12:14 47.18238 7.41897 1404 ft 16 kts 103°
2026-04-11 12:14 47.18264 7.42045 1405 ft 15 kts 65°
2026-04-11 12:14 47.18307 7.42181 1409 ft 15 kts 63°
2026-04-11 12:15 47.18335 7.42307 1407 ft 10 kts 233°
2026-04-11 12:15 47.18319 7.42250 1402 ft 6 kts 248°
2026-04-11 12:15 47.18240 7.41985 1405 ft 57 kts 247°
2026-04-11 12:15 47.18021 7.41304 1497 ft 79 kts 244°
2026-04-11 12:16 47.17787 7.40520 1690 ft 98 kts 245°
2026-04-11 12:16 47.17465 7.39495 1844 ft 114 kts 244°
2026-04-11 12:16 47.17142 7.38439 2180 ft 113 kts 245°
2026-04-11 12:16 47.16807 7.37380 2501 ft 115 kts 245°
2026-04-11 12:17 47.16318 7.36490 2817 ft 114 kts 208°
2026-04-11 12:17 47.15562 7.36232 3220 ft 110 kts 193°
2026-04-11 12:17 47.14818 7.36046 3536 ft 108 kts 195°
2026-04-11 12:17 47.14079 7.35840 3921 ft 107 kts 199°
2026-04-11 12:18 47.13364 7.35607 4332 ft 106 kts 200°
2026-04-11 12:18 47.12641 7.35356 4641 ft 107 kts 202°
2026-04-11 12:18 47.11200 7.34824 5306 ft 109 kts 203°
2026-04-11 12:19 47.10461 7.34536 5650 ft 110 kts 202°
2026-04-11 12:19 47.09710 7.34267 5977 ft 112 kts 202°
2026-04-11 12:19 47.08949 7.33988 6264 ft 114 kts 202°
2026-04-11 12:19 47.08177 7.33700 6586 ft 114 kts 202°
2026-04-11 12:20 47.07407 7.33408 6918 ft 115 kts 203°
2026-04-11 12:20 47.06642 7.33118 7220 ft 115 kts 202°
2026-04-11 12:20 47.05860 7.32828 7559 ft 115 kts 202°
2026-04-11 12:20 47.05079 7.32538 7907 ft 117 kts 202°
2026-04-11 12:21 47.04292 7.32240 8249 ft 117 kts 202°
2026-04-11 12:21 47.03499 7.31943 8567 ft 117 kts 201°
2026-04-11 12:21 47.02707 7.31648 8920 ft 117 kts 201°
2026-04-11 12:21 47.01911 7.31350 9267 ft 118 kts 201°
2026-04-11 12:22 47.01112 7.31050 9582 ft 119 kts 201°
2026-04-11 12:22 47.00304 7.30746 9890 ft 120 kts 200°
2026-04-11 12:22 46.99494 7.30444 10211 ft 120 kts 200°
2026-04-11 12:22 46.98679 7.30138 10503 ft 121 kts 200°
2026-04-11 12:23 46.97856 7.29833 10794 ft 123 kts 201°
2026-04-11 12:23 46.97039 7.29526 11105 ft 123 kts 201°
2026-04-11 12:23 46.96206 7.29214 11396 ft 123 kts 201°
2026-04-11 12:23 46.95372 7.28904 11694 ft 124 kts 201°
2026-04-11 12:24 46.94531 7.28588 11979 ft 125 kts 201°
2026-04-11 12:24 46.93689 7.28276 12340 ft 124 kts 202°
2026-04-11 12:24 46.92844 7.27961 12623 ft 126 kts 201°
2026-04-11 12:24 46.91989 7.27640 12925 ft 129 kts 201°
2026-04-11 12:25 46.91052 7.27285 12962 ft 148 kts 201°
2026-04-11 12:25 46.90012 7.26892 12966 ft 161 kts 201°
2026-04-11 12:25 46.88900 7.26477 12972 ft 169 kts 200°
2026-04-11 12:25 46.87738 7.26051 12973 ft 173 kts 200°
2026-04-11 12:26 46.86582 7.25628 13179 ft 166 kts 200°
2026-04-11 12:26 46.85496 7.25230 13508 ft 156 kts 201°
2026-04-11 12:26 46.84471 7.24849 13817 ft 148 kts 201°
2026-04-11 12:26 46.83510 7.24494 14113 ft 140 kts 201°
2026-04-11 12:27 46.82585 7.24151 14427 ft 135 kts 202°
2026-04-11 12:27 46.81683 7.23813 14735 ft 131 kts 201°
2026-04-11 12:27 46.80810 7.23489 15048 ft 127 kts 202°
2026-04-11 12:27 46.79964 7.23176 15364 ft 124 kts 204°
2026-04-11 12:28 46.79135 7.22867 15683 ft 121 kts 204°
2026-04-11 12:28 46.78334 7.22571 16019 ft 117 kts 204°
2026-04-11 12:28 46.77541 7.22324 16344 ft 118 kts 195°
2026-04-11 12:28 46.76736 7.22211 16672 ft 115 kts 197°
2026-04-11 12:29 46.75950 7.22098 16957 ft 116 kts 198°
2026-04-11 12:29 46.75072 7.21956 16967 ft 137 kts 196°
2026-04-11 12:29 46.74076 7.21803 16969 ft 154 kts 194°
2026-04-11 12:29 46.72969 7.21645 16969 ft 165 kts 193°
2026-04-11 12:30 46.71795 7.21485 16975 ft 173 kts 193°
2026-04-11 12:30 46.70573 7.21317 16970 ft 179 kts 192°
2026-04-11 12:30 46.69329 7.21144 16968 ft 179 kts 192°
2026-04-11 12:30 46.68083 7.20971 16974 ft 181 kts 192°
2026-04-11 12:31 46.66818 7.20792 16976 ft 183 kts 192°
2026-04-11 12:31 46.65535 7.20610 16969 ft 187 kts 192°
2026-04-11 12:31 46.64254 7.20426 16967 ft 187 kts 192°
2026-04-11 12:31 46.62962 7.20245 16971 ft 186 kts 192°
2026-04-11 12:32 46.61663 7.20061 16971 ft 188 kts 192°
2026-04-11 12:32 46.60353 7.19875 16967 ft 189 kts 192°
2026-04-11 12:32 46.59042 7.19688 16964 ft 189 kts 192°
2026-04-11 12:32 46.57742 7.19504 16972 ft 188 kts 192°
2026-04-11 12:33 46.56443 7.19322 16957 ft 186 kts 192°
2026-04-11 12:33 46.55186 7.19150 16979 ft 176 kts 192°
2026-04-11 12:33 46.53964 7.18976 16974 ft 179 kts 192°
2026-04-11 12:33 46.52714 7.18793 16977 ft 182 kts 192°
2026-04-11 12:34 46.51873 7.18673 16974 ft 184 kts 192°
2026-04-11 12:34 46.50593 7.18493 16957 ft 183 kts 192°
2026-04-11 12:34 46.49337 7.18319 16974 ft 181 kts 192°
2026-04-11 12:34 46.48076 7.18136 16966 ft 183 kts 193°
2026-04-11 12:35 46.46800 7.17943 16965 ft 185 kts 192°
2026-04-11 12:35 46.45508 7.17764 16968 ft 188 kts 192°
2026-04-11 12:35 46.44201 7.17587 16966 ft 188 kts 192°
2026-04-11 12:35 46.42893 7.17406 16967 ft 189 kts 192°
2026-04-11 12:36 46.41581 7.17224 16967 ft 189 kts 192°
2026-04-11 12:36 46.40276 7.17042 16942 ft 187 kts 192°
2026-04-11 12:36 46.38978 7.16857 16953 ft 188 kts 192°
2026-04-11 12:36 46.37692 7.16677 16953 ft 188 kts 192°
2026-04-11 12:37 46.36394 7.16518 16950 ft 186 kts 192°
2026-04-11 12:37 46.35108 7.16318 16954 ft 187 kts 193°
2026-04-11 12:37 46.33812 7.16123 16945 ft 188 kts 192°
2026-04-11 12:37 46.32510 7.15943 16942 ft 188 kts 192°
2026-04-11 12:38 46.31207 7.15763 16952 ft 189 kts 192°
2026-04-11 12:38 46.29886 7.15579 16945 ft 191 kts 192°
2026-04-11 12:38 46.28565 7.15396 16945 ft 191 kts 192°
2026-04-11 12:38 46.27244 7.15212 16944 ft 191 kts 192°
2026-04-11 12:39 46.25922 7.15026 16949 ft 192 kts 192°
2026-04-11 12:39 46.24586 7.14837 16950 ft 193 kts 192°
2026-04-11 12:39 46.23258 7.14654 16946 ft 188 kts 192°
2026-04-11 12:39 46.21961 7.14475 16951 ft 188 kts 192°
2026-04-11 12:40 46.20649 7.14290 16953 ft 192 kts 192°
2026-04-11 12:40 46.19312 7.14101 16943 ft 192 kts 192°
2026-04-11 12:40 46.17979 7.13918 16945 ft 192 kts 192°
2026-04-11 12:40 46.16648 7.13735 16957 ft 192 kts 193°
2026-04-11 12:41 46.15333 7.13548 16956 ft 193 kts 192°
2026-04-11 12:41 46.14000 7.13361 16942 ft 192 kts 192°
2026-04-11 12:41 46.12675 7.13177 16945 ft 191 kts 192°
2026-04-11 12:41 46.11355 7.12994 16948 ft 191 kts 192°
2026-04-11 12:42 46.10017 7.12766 16828 ft 192 kts 194°
2026-04-11 12:42 46.08703 7.12579 16949 ft 188 kts 191°
2026-04-11 12:42 46.07388 7.12433 16954 ft 190 kts 191°
2026-04-11 12:43 46.04720 7.12069 16971 ft 199 kts 192°
2026-04-11 12:43 46.03357 7.11878 16970 ft 192 kts 191°
2026-04-11 12:43 46.02028 7.11703 16964 ft 191 kts 192°
2026-04-11 12:43 46.00737 7.11524 16974 ft 187 kts 192°
2026-04-11 12:44 45.99418 7.11336 16978 ft 193 kts 192°
2026-04-11 12:44 45.98090 7.11151 16975 ft 190 kts 192°
2026-04-11 12:44 45.96779 7.10971 16988 ft 189 kts 192°
2026-04-11 12:44 45.95463 7.10789 16995 ft 190 kts 192°
2026-04-11 12:45 45.94139 7.10606 16998 ft 191 kts 192°
2026-04-11 12:45 45.92816 7.10420 17002 ft 192 kts 192°
2026-04-11 12:45 45.91483 7.10237 16996 ft 192 kts 192°
2026-04-11 12:45 45.90156 7.10058 17001 ft 191 kts 192°
2026-04-11 12:46 45.88835 7.09873 16992 ft 190 kts 192°
2026-04-11 12:46 45.87533 7.09708 16993 ft 191 kts 188°
2026-04-11 12:46 45.86204 7.09661 17002 ft 192 kts 186°
2026-04-11 12:46 45.84875 7.09547 16994 ft 191 kts 193°
2026-04-11 12:47 45.83556 7.09371 16989 ft 187 kts 191°
2026-04-11 12:47 45.82264 7.09267 17004 ft 186 kts 190°
2026-04-11 12:47 45.80961 7.09167 17002 ft 189 kts 189°
2026-04-11 12:47 45.79634 7.09068 17004 ft 192 kts 189°
2026-04-11 12:48 45.78291 7.08965 17009 ft 194 kts 189°
2026-04-11 12:48 45.76938 7.08859 17004 ft 195 kts 189°
2026-04-11 12:48 45.75583 7.08750 17007 ft 195 kts 189°
2026-04-11 12:48 45.74225 7.08641 16994 ft 196 kts 189°
2026-04-11 12:49 45.72860 7.08532 17000 ft 196 kts 189°
2026-04-11 12:49 45.71495 7.08423 16999 ft 197 kts 189°
2026-04-11 12:49 45.70126 7.08315 17016 ft 198 kts 189°
2026-04-11 12:49 45.68763 7.08209 17006 ft 197 kts 190°
2026-04-11 12:50 45.67413 7.08085 17020 ft 193 kts 189°
2026-04-11 12:50 45.66067 7.07995 17027 ft 194 kts 189°
2026-04-11 12:50 45.64713 7.07889 17028 ft 196 kts 189°
2026-04-11 12:50 45.63345 7.07777 17030 ft 197 kts 189°
2026-04-11 12:51 45.61973 7.07666 17031 ft 198 kts 189°
2026-04-11 12:51 45.60592 7.07555 17024 ft 199 kts 189°
2026-04-11 12:51 45.59206 7.07446 17024 ft 199 kts 189°
2026-04-11 12:51 45.57829 7.07337 17027 ft 199 kts 189°
2026-04-11 12:52 45.56442 7.07227 17025 ft 200 kts 189°
2026-04-11 12:52 45.55053 7.07118 17008 ft 199 kts 189°
2026-04-11 12:52 45.53708 7.07014 17018 ft 194 kts 189°
2026-04-11 12:52 45.52368 7.06906 17009 ft 191 kts 189°
2026-04-11 12:53 45.51057 7.06821 17024 ft 188 kts 188°
2026-04-11 12:53 45.49758 7.06711 17021 ft 186 kts 189°
2026-04-11 12:53 45.48468 7.06590 17023 ft 186 kts 189°
2026-04-11 12:53 45.47168 7.06485 17021 ft 188 kts 188°
2026-04-11 12:54 45.45863 7.06386 17025 ft 189 kts 189°
2026-04-11 12:54 45.44544 7.06283 17030 ft 190 kts 189°
2026-04-11 12:54 45.43216 7.06180 17034 ft 192 kts 189°
2026-04-11 12:54 45.41874 7.06071 17031 ft 194 kts 189°
2026-04-11 12:55 45.40518 7.05967 17032 ft 195 kts 189°
2026-04-11 12:55 45.39157 7.05863 17037 ft 196 kts 189°
2026-04-11 12:55 45.37796 7.05754 17036 ft 196 kts 189°
2026-04-11 12:55 45.36439 7.05647 17036 ft 195 kts 189°
2026-04-11 12:56 45.35077 7.05540 17033 ft 196 kts 188°
2026-04-11 12:56 45.33710 7.05432 17032 ft 197 kts 188°
2026-04-11 12:56 45.32343 7.05329 17023 ft 195 kts 188°
2026-04-11 12:56 45.31013 7.05222 17035 ft 194 kts 188°
2026-04-11 12:57 45.29666 7.05113 17035 ft 194 kts 188°
2026-04-11 12:57 45.28321 7.05010 17040 ft 194 kts 188°
2026-04-11 12:57 45.26963 7.04902 17038 ft 195 kts 188°
2026-04-11 12:57 45.25608 7.04796 17042 ft 195 kts 188°
2026-04-11 12:58 45.24246 7.04691 17038 ft 196 kts 188°
2026-04-11 12:58 45.22887 7.04583 17038 ft 196 kts 188°
2026-04-11 12:58 45.21523 7.04476 17039 ft 196 kts 188°
2026-04-11 12:58 45.20162 7.04369 17043 ft 196 kts 188°
2026-04-11 12:59 45.18800 7.04263 17046 ft 196 kts 188°
2026-04-11 12:59 45.17439 7.04158 17042 ft 195 kts 188°
2026-04-11 12:59 45.16082 7.04052 17034 ft 194 kts 188°
2026-04-11 12:59 45.14739 7.03944 17038 ft 193 kts 188°
2026-04-11 13:00 45.13400 7.03844 17033 ft 192 kts 188°
2026-04-11 13:00 45.12074 7.03741 17038 ft 190 kts 188°
2026-04-11 13:00 45.10751 7.03637 17040 ft 191 kts 188°
2026-04-11 13:00 45.09417 7.03532 17041 ft 193 kts 188°
2026-04-11 13:01 45.08073 7.03426 17044 ft 194 kts 188°
2026-04-11 13:01 45.05399 7.03219 17041 ft 193 kts 188°
2026-04-11 13:01 45.04059 7.03114 17041 ft 193 kts 188°
2026-04-11 13:02 45.02718 7.03009 17044 ft 193 kts 188°
2026-04-11 13:02 45.01374 7.02905 17044 ft 194 kts 188°
2026-04-11 13:02 45.00020 7.02800 17041 ft 195 kts 188°
2026-04-11 13:02 44.98665 7.02695 17022 ft 194 kts 188°
2026-04-11 13:03 44.97320 7.02594 17017 ft 194 kts 187°
2026-04-11 13:03 44.95966 7.02486 17023 ft 195 kts 188°
2026-04-11 13:03 44.94603 7.02379 17011 ft 196 kts 188°
2026-04-11 13:03 44.93267 7.02276 17011 ft 194 kts 187°
2026-04-11 13:04 44.91912 7.02171 17012 ft 194 kts 187°
2026-04-11 13:04 44.90565 7.02066 17016 ft 194 kts 187°
2026-04-11 13:04 44.89216 7.01962 17024 ft 196 kts 187°
2026-04-11 13:04 44.87850 7.01880 17019 ft 195 kts 187°
2026-04-11 13:05 44.86508 7.01757 17019 ft 194 kts 188°
2026-04-11 13:05 44.85154 7.01636 17023 ft 196 kts 188°
2026-04-11 13:05 44.83787 7.01533 17021 ft 193 kts 187°
2026-04-11 13:05 44.82452 7.01436 17024 ft 194 kts 187°
2026-04-11 13:06 44.81098 7.01335 17027 ft 194 kts 187°
2026-04-11 13:06 44.79751 7.01314 17021 ft 198 kts 177°
2026-04-11 13:06 44.78386 7.01631 17020 ft 196 kts 173°
2026-04-11 13:06 44.77057 7.01951 17019 ft 195 kts 174°
2026-04-11 13:07 44.75705 7.02278 17020 ft 196 kts 174°
2026-04-11 13:07 44.74375 7.02597 17019 ft 194 kts 174°
2026-04-11 13:07 44.73041 7.02912 17020 ft 194 kts 174°
2026-04-11 13:07 44.71699 7.03229 17022 ft 196 kts 174°
2026-04-11 13:08 44.70350 7.03550 17018 ft 196 kts 174°
2026-04-11 13:08 44.69014 7.03869 17020 ft 193 kts 174°
2026-04-11 13:08 44.67700 7.04186 17020 ft 194 kts 174°
2026-04-11 13:08 44.66346 7.04508 17025 ft 196 kts 174°
2026-04-11 13:09 44.65010 7.04827 17018 ft 197 kts 174°
2026-04-11 13:09 44.63663 7.05151 17021 ft 195 kts 174°
2026-04-11 13:09 44.62320 7.05464 17019 ft 196 kts 174°
2026-04-11 13:09 44.60973 7.05781 17021 ft 196 kts 174°
2026-04-11 13:10 44.59641 7.06100 17014 ft 195 kts 175°
2026-04-11 13:10 44.58304 7.06421 17022 ft 195 kts 174°
2026-04-11 13:10 44.56962 7.06739 17023 ft 196 kts 174°
2026-04-11 13:10 44.55608 7.07058 17022 ft 197 kts 174°
2026-04-11 13:11 44.54276 7.07378 17020 ft 195 kts 174°
2026-04-11 13:11 44.52933 7.07690 17019 ft 193 kts 174°
2026-04-11 13:11 44.51612 7.08007 17019 ft 192 kts 174°
2026-04-11 13:11 44.50306 7.08315 17021 ft 193 kts 174°
2026-04-11 13:12 44.48967 7.08630 17011 ft 193 kts 174°
2026-04-11 13:12 44.47662 7.08943 17020 ft 189 kts 174°
2026-04-11 13:12 44.46381 7.09249 17029 ft 185 kts 174°
2026-04-11 13:12 44.45088 7.09552 17023 ft 190 kts 174°
2026-04-11 13:13 44.43772 7.09858 17022 ft 192 kts 174°
2026-04-11 13:13 44.42449 7.10164 17023 ft 195 kts 174°
2026-04-11 13:13 44.41107 7.10482 17021 ft 196 kts 174°
2026-04-11 13:13 44.39773 7.10803 17021 ft 196 kts 174°
2026-04-11 13:14 44.38417 7.11125 17024 ft 196 kts 174°
2026-04-11 13:14 44.37080 7.11441 17024 ft 196 kts 174°
2026-04-11 13:14 44.35740 7.11756 17022 ft 197 kts 174°
2026-04-11 13:14 44.34381 7.12076 17023 ft 196 kts 174°
2026-04-11 13:15 44.33052 7.12388 17022 ft 194 kts 174°
2026-04-11 13:15 44.31721 7.12700 17021 ft 194 kts 174°
2026-04-11 13:15 44.30395 7.13012 17020 ft 194 kts 174°
2026-04-11 13:15 44.29060 7.13326 17019 ft 194 kts 174°
2026-04-11 13:16 44.27748 7.13635 17025 ft 195 kts 174°
2026-04-11 13:16 44.26368 7.13958 17010 ft 197 kts 174°
2026-04-11 13:16 44.25012 7.14276 17011 ft 198 kts 174°
2026-04-11 13:16 44.23666 7.14592 17015 ft 198 kts 174°
2026-04-11 13:17 44.22299 7.14912 17021 ft 198 kts 174°
2026-04-11 13:17 44.20968 7.15389 17012 ft 201 kts 160°
2026-04-11 13:17 44.19668 7.16153 17013 ft 201 kts 160°
2026-04-11 13:17 44.18380 7.16920 17010 ft 201 kts 160°
2026-04-11 13:18 44.17091 7.17671 17005 ft 200 kts 160°
2026-04-11 13:18 44.15825 7.18408 17010 ft 199 kts 161°
2026-04-11 13:18 44.14543 7.19168 17010 ft 200 kts 161°
2026-04-11 13:18 44.13276 7.19917 17012 ft 200 kts 162°
2026-04-11 13:19 44.11979 7.20675 17013 ft 200 kts 162°
2026-04-11 13:19 44.10705 7.21422 17004 ft 201 kts 161°
2026-04-11 13:19 44.09395 7.22188 16800 ft 209 kts 161°
2026-04-11 13:19 44.08025 7.22990 16548 ft 216 kts 161°
2026-04-11 13:20 44.06624 7.23811 16298 ft 221 kts 161°
2026-04-11 13:20 44.05676 7.24363 16123 ft 223 kts 161°
2026-04-11 13:20 44.03756 7.25485 15796 ft 226 kts 160°
2026-04-11 13:20 44.02789 7.26055 15637 ft 227 kts 159°
2026-04-11 13:21 44.01342 7.26902 15382 ft 225 kts 160°
2026-04-11 13:21 43.99890 7.27749 15145 ft 225 kts 160°
2026-04-11 13:21 43.98450 7.28588 14902 ft 225 kts 159°
2026-04-11 13:21 43.97017 7.29426 14661 ft 225 kts 159°
2026-04-11 13:22 43.95592 7.30258 14426 ft 215 kts 159°
2026-04-11 13:22 43.94228 7.31054 14188 ft 209 kts 159°
2026-04-11 13:22 43.92911 7.31821 14044 ft 200 kts 159°
2026-04-11 13:22 43.91683 7.32537 14038 ft 187 kts 159°
2026-04-11 13:23 43.90508 7.33221 14030 ft 178 kts 159°
2026-04-11 13:23 43.89399 7.33868 14026 ft 172 kts 159°
2026-04-11 13:23 43.88310 7.34501 14034 ft 168 kts 159°
2026-04-11 13:23 43.87240 7.35123 14032 ft 165 kts 159°
2026-04-11 13:24 43.86186 7.35734 14032 ft 165 kts 159°
2026-04-11 13:24 43.85123 7.36351 14032 ft 163 kts 159°
2026-04-11 13:24 43.84088 7.36951 14036 ft 163 kts 159°
2026-04-11 13:24 43.83073 7.37623 14033 ft 162 kts 146°
2026-04-11 13:25 43.82194 7.38595 14034 ft 161 kts 142°
2026-04-11 13:25 43.81323 7.39567 14040 ft 159 kts 142°
2026-04-11 13:25 43.80464 7.40530 14034 ft 161 kts 142°
2026-04-11 13:25 43.79560 7.41536 13849 ft 174 kts 142°
2026-04-11 13:26 43.78602 7.42620 13584 ft 182 kts 141°
2026-04-11 13:26 43.77595 7.43745 13328 ft 187 kts 141°
2026-04-11 13:26 43.76582 7.44880 13069 ft 190 kts 141°
2026-04-11 13:26 43.75546 7.46038 12816 ft 192 kts 142°
2026-04-11 13:27 43.74508 7.47195 12568 ft 194 kts 142°
2026-04-11 13:27 43.73454 7.48371 12314 ft 195 kts 141°
2026-04-11 13:27 43.72394 7.49555 12061 ft 195 kts 141°
2026-04-11 13:27 43.71348 7.50722 11804 ft 195 kts 141°
2026-04-11 13:28 43.70279 7.51902 11554 ft 195 kts 142°
2026-04-11 13:28 43.69207 7.53080 11306 ft 195 kts 142°
2026-04-11 13:28 43.68155 7.54234 11067 ft 195 kts 142°
2026-04-11 13:28 43.67074 7.55271 11029 ft 183 kts 159°
2026-04-11 13:29 43.65873 7.55449 11023 ft 169 kts 197°
2026-04-11 13:29 43.64822 7.54834 11025 ft 160 kts 211°
2026-04-11 13:29 43.63842 7.54141 10918 ft 163 kts 212°
2026-04-11 13:29 43.62803 7.53389 10682 ft 175 kts 212°
2026-04-11 13:30 43.61696 7.52578 10445 ft 184 kts 212°
2026-04-11 13:30 43.60558 7.51742 10210 ft 188 kts 212°
2026-04-11 13:30 43.59391 7.50882 9974 ft 191 kts 212°
2026-04-11 13:30 43.58225 7.50022 9726 ft 192 kts 212°
2026-04-11 13:31 43.57049 7.49160 9462 ft 188 kts 212°
2026-04-11 13:31 43.55907 7.48330 9205 ft 185 kts 212°
2026-04-11 13:31 43.54772 7.47510 8948 ft 183 kts 212°
2026-04-11 13:31 43.53657 7.46708 8698 ft 181 kts 212°
2026-04-11 13:32 43.52540 7.45908 8442 ft 179 kts 212°
2026-04-11 13:32 43.51443 7.45128 8194 ft 178 kts 212°
2026-04-11 13:32 43.50338 7.44348 8003 ft 174 kts 212°
2026-04-11 13:32 43.49307 7.43632 8000 ft 162 kts 212°
2026-04-11 13:33 43.48318 7.42955 7996 ft 155 kts 212°
2026-04-11 13:33 43.47361 7.42305 7994 ft 150 kts 212°
2026-04-11 13:33 43.46440 7.41683 7991 ft 147 kts 212°
2026-04-11 13:33 43.45522 7.41066 7991 ft 145 kts 212°
2026-04-11 13:34 43.44625 7.40465 7989 ft 144 kts 212°
2026-04-11 13:34 43.43725 7.39862 7987 ft 142 kts 214°
2026-04-11 13:34 43.43138 7.38887 7992 ft 130 kts 259°
2026-04-11 13:34 43.43213 7.37702 7997 ft 126 kts 285°
2026-04-11 13:35 43.43323 7.36514 7999 ft 127 kts 274°
2026-04-11 13:35 43.43162 7.35305 7995 ft 130 kts 255°
2026-04-11 13:35 43.42834 7.34155 7999 ft 131 kts 252°
2026-04-11 13:35 43.42471 7.32998 7999 ft 131 kts 251°
2026-04-11 13:36 43.42087 7.31803 8001 ft 144 kts 251°
2026-04-11 13:36 43.41664 7.30496 7996 ft 153 kts 250°
2026-04-11 13:36 43.41232 7.29167 7984 ft 153 kts 250°
2026-04-11 13:36 43.40791 7.27812 7810 ft 155 kts 250°
2026-04-11 13:37 43.40348 7.26454 7635 ft 156 kts 250°
2026-04-11 13:37 43.39903 7.25092 7462 ft 156 kts 250°
2026-04-11 13:37 43.39462 7.23744 7297 ft 156 kts 250°
2026-04-11 13:37 43.39022 7.22398 7126 ft 155 kts 250°
2026-04-11 13:38 43.38580 7.21045 6961 ft 155 kts 250°
2026-04-11 13:38 43.38140 7.19699 6796 ft 154 kts 250°
2026-04-11 13:38 43.37700 7.18355 6628 ft 154 kts 250°
2026-04-11 13:38 43.37263 7.17018 6464 ft 153 kts 250°
2026-04-11 13:39 43.36704 7.15775 6283 ft 158 kts 226°
2026-04-11 13:39 43.35811 7.14880 6107 ft 158 kts 223°
2026-04-11 13:39 43.34918 7.14001 5932 ft 158 kts 220°
2026-04-11 13:39 43.34015 7.13139 5758 ft 158 kts 220°
2026-04-11 13:40 43.33114 7.12274 5580 ft 157 kts 220°
2026-04-11 13:40 43.32220 7.11408 5408 ft 157 kts 220°
2026-04-11 13:40 43.31327 7.10541 5238 ft 157 kts 220°
2026-04-11 13:40 43.30451 7.09679 5071 ft 156 kts 220°
2026-04-11 13:41 43.29703 7.08630 4900 ft 153 kts 236°
2026-04-11 13:41 43.29080 7.07442 4724 ft 153 kts 238°
2026-04-11 13:41 43.28471 7.06252 4546 ft 152 kts 238°
2026-04-11 13:41 43.27867 7.05055 4370 ft 152 kts 238°
2026-04-11 13:42 43.27263 7.03858 4193 ft 153 kts 238°
2026-04-11 13:42 43.26690 7.02633 4014 ft 152 kts 248°
2026-04-11 13:42 43.26397 7.01285 3997 ft 143 kts 256°
2026-04-11 13:42 43.26156 6.99987 3996 ft 137 kts 257°
2026-04-11 13:43 43.25927 6.98750 3997 ft 134 kts 257°
2026-04-11 13:43 43.25695 6.97494 3999 ft 138 kts 257°
2026-04-11 13:43 43.25460 6.96206 4001 ft 140 kts 257°
2026-04-11 13:43 43.25219 6.94905 4000 ft 141 kts 257°
2026-04-11 13:44 43.24980 6.93596 3998 ft 142 kts 257°
2026-04-11 13:44 43.24748 6.92276 3999 ft 143 kts 258°
2026-04-11 13:44 43.24517 6.90949 3999 ft 143 kts 258°
2026-04-11 13:44 43.24292 6.89623 3999 ft 143 kts 258°
2026-04-11 13:45 43.24065 6.88296 4001 ft 143 kts 258°
2026-04-11 13:45 43.23840 6.86968 4001 ft 143 kts 258°
2026-04-11 13:45 43.23614 6.85643 4001 ft 142 kts 258°
2026-04-11 13:45 43.23387 6.84320 4001 ft 143 kts 258°
2026-04-11 13:46 43.23159 6.82999 3995 ft 142 kts 258°
2026-04-11 13:46 43.22935 6.81698 3995 ft 141 kts 258°
2026-04-11 13:46 43.22706 6.80369 3996 ft 141 kts 257°
2026-04-11 13:46 43.22485 6.79074 3994 ft 141 kts 258°
2026-04-11 13:47 43.22257 6.77765 3992 ft 141 kts 258°
2026-04-11 13:47 43.22031 6.76456 3993 ft 141 kts 258°
2026-04-11 13:47 43.21808 6.75147 3993 ft 141 kts 258°
2026-04-11 13:47 43.21585 6.73839 3992 ft 141 kts 258°
2026-04-11 13:48 43.21364 6.72537 3993 ft 140 kts 258°
2026-04-11 13:48 43.21143 6.71235 3993 ft 140 kts 258°
2026-04-11 13:48 43.20924 6.69927 3992 ft 141 kts 260°
2026-04-11 13:48 43.20987 6.68593 3993 ft 141 kts 276°
2026-04-11 13:49 43.21134 6.67267 3992 ft 141 kts 278°
2026-04-11 13:49 43.21291 6.65941 3993 ft 141 kts 278°
2026-04-11 13:49 43.21445 6.64608 3993 ft 142 kts 278°
2026-04-11 13:49 43.21594 6.63312 3996 ft 137 kts 277°
2026-04-11 13:50 43.21740 6.62026 3996 ft 137 kts 277°
2026-04-11 13:50 43.21884 6.60745 3998 ft 136 kts 277°
2026-04-11 13:50 43.21948 6.59444 3998 ft 138 kts 265°
2026-04-11 13:50 43.21818 6.58142 3991 ft 133 kts 262°
2026-04-11 13:51 43.21700 6.56887 3682 ft 134 kts 263°
2026-04-11 13:51 43.21594 6.55595 3347 ft 137 kts 264°
2026-04-11 13:51 43.21493 6.54301 2979 ft 136 kts 263°
2026-04-11 13:51 43.21396 6.53011 2532 ft 142 kts 264°
2026-04-11 13:52 43.21349 6.51616 1294 ft 149 kts 265°
2026-04-11 13:52 43.21291 6.50222 577 ft 135 kts 262°
2026-04-11 13:52 43.20927 6.49159 197 ft 110 kts 234°
2026-04-11 13:52 43.20606 6.48365 65 ft 76 kts 242°
2026-04-11 13:53 43.20434 6.47911 69 ft 20 kts 242°
2026-04-11 13:53 43.20369 6.47755 66 ft 20 kts 242°
2026-04-11 13:53 43.20344 6.47687 66 ft 0 kts 243°
2026-04-11 13:53 43.20332 6.47658 62 ft 6 kts 239°
2026-04-11 13:54 43.20311 6.47601 63 ft 7 kts 236°
2026-04-11 13:54 43.20291 6.47532 66 ft 9 kts 287°
2026-04-11 13:54 43.20337 6.47528 66 ft 9 kts 65°
2026-04-11 13:54 43.20360 6.47592 61 ft 0 kts 61°
2026-04-11 13:55 43.20363 6.47600 66 ft 3 kts 60°
2026-04-11 13:55 43.20372 6.47602 66 ft 0 kts 339°
2026-04-11 13:55 43.20391 6.47589 66 ft 4 kts 335°
2026-04-11 13:55 43.20394 6.47588 66 ft 0 kts 335°